Погода в Топике

США     39°00′59″N   95°42′17″W
темп.,
°C
ветер,
м/с
пор.,
м/с
влажн.,
%
обл.,
%
осадки,
мм/ч
давл.,
гПа
погр.,
м
16 октября, сб
сб1601:00+8зсз48470 0.0 1023136
04:00+7зсз49490 0.0 1024159
07:00+6з49490 0.0 1026143
10:00+11зсз58440 0.0 1027343
13:00+17зсз58310 0.0 10251292
16:00+18зсз57270 0.0 10231718
19:00+13з22410 0.0 102311
22:00+12з22410 0.0 102410
17 октября, вс
вс1701:00+11юз22420 0.0 102411
04:00+10юз33470 0.0 102432
07:00+9юз33500 0.0 102420
10:00+15ююз33440 0.0 1023201
13:00+21ююз44320 0.0 1022739
16:00+22ююз45310 0.0 10191140
19:00+16ююв46480 0.0 101876
22:00+13ю49580 0.0 1019132
18 октября, пн
пн1801:00+12ю412600 0.0 1018193
04:00+11ююз513590 0.0 1018231
07:00+10ю513620 0.0 1018227
10:00+15ю714490 0.0 1018455
13:00+21ю912330 0.0 1016972
16:00+21ю8123448 0.0 10131171
19:00+17ю71444100 0.0 1014502
22:00+16ю817480 0.0 1014639
19 октября, вт
вт1901:00+14ю716550 0.0 1014532
04:00+14ю717540 0.0 1013536
07:00+13ю715570 0.0 1013469
10:00+17ю917550 0.0 1013654
13:00+22ю1014500 0.0 1011964
16:00+24ю1014500 0.0 10091203
19:00+21ю815610 0.0 1010659
22:00+19ю917690 0.0 1012640
20 октября, ср
ср2001:00+16ююз714793 0.4 1014460
04:00+15ююз5128894 1.5 1014323
07:00+14з359087 1.8 1016124
10:00+14зсз68560 0.0 1018441
13:00+19зсз68400 0.0 10171083
16:00+20зсз79370 0.0 10161476
19:00+15зсз410490 0.0 1017207
22:00+12зсз48580 0.0 1019160